User: anonymous   Login
Location: Unspecified
(0.0000°N, 0.0000°E)
Time: 06:05:53
(UTC+00:00)
Language:

GALILEO 11 (268) - Orbit

View from above orbital plane
View from above orbital plane
View from above satellite
View from above satellite

Ground track
Ground track

The orbit data is extracted from the following two-line orbital elements,

1 41175U 15079B   18231.24887466  .00000001  00000-0  00000+0 0  9990
2 41175  54.9250 179.8917 0005104 298.1662  61.7493  1.70473221 16623
Epoch (UTC): 19 August 2018 05:58:22
Eccentricity: 0.0005104
inclination: 54.9250°
perigee height: 23207 km
apogee height: 23237 km
right ascension of ascending node: 179.8917°
argument of perigee: 298.1662°
revolutions per day: 1.70473221
mean anomaly at epoch: 61.7493°
orbit number at epoch: 1662

The dashed part of the orbit path shows where the satellite is in the earth's shadow,  

DLR